Regional Weather Roundup
Issued by NWS Charleston, SC

Current Version | Previous Version | Graphics & Text | Print | Product List | Glossary On
Versions: 1 2 3 4 5 6 7 8 9 10 11 12 13 14 15 16 17 18 19 20 21 22 23 24 25 26 27 28 29 30 31 32 33 34 35 36 37 38 39 40 41 42 43 44 45 46 47 48 49 50
000
ASUS42 KCHS 232111
RWRCHS

REGIONAL WEATHER ROUNDUP
NATIONAL WEATHER SERVICE CHARLESTON SC
400 PM EST THU FEB 23 2017

NOTE: "FAIR" INDICATES FEW OR NO CLOUDS BELOW 12,000 FEET WITH NO
SIGNIFICANT WEATHER AND/OR OBSTRUCTIONS TO VISIBILITY.

NOT ALL STATIONS ARE QUALITY CONTROLLED. USE DATA WITH CAUTION...
ESPECIALLY DEWPOINT OBSERVATIONS.

SCZ027-030-031-034>040-042>050-232200-
...SOUTHEAST SOUTH CAROLINA...

CITY           SKY/WX    TMP DP  RH WIND       PRES   REMARKS
N CHARLESTON   PTSUNNY   75  57  53 E16G24    29.81S
WATERFRONT PRK   N/A     71  62  73 E17       29.80S
MOUNT PLEASANT FAIR      73  63  68 E13G23    29.82S
JOHNS ISLAND   FAIR      72  63  73 E21G26    29.82R
PINOPOLIS        N/A     72  59  64 E12       29.74F
MONCKS CORNER  CLOUDY    73  55  53 E9        29.82S
SUMMERVILLE    MOCLDY    73  55  53 E6        29.82S
BEAUFORT MCAS  PTSUNNY   75  62  64 E12       29.80S
BEAUFORT ARPT  FAIR      72  61  68 E17       29.80S
HILTON HEAD IS MOSUNNY   72  63  73 NE12G21   29.81S
WALTERBORO     CLOUDY    73  57  56 E10G17    29.82R
ALLENDALE      FAIR      77  55  47 VRB6      29.79F

...SOUTHERN MIDLANDS AND PEE DEE...

CITY           SKY/WX    TMP DP  RH WIND       PRES   REMARKS
GEORGETOWN     FAIR      72  57  60 E9        29.85S
KINGSTREE      CLOUDY    72  55  56 E10       29.83S
ORANGEBURG     PTSUNNY   77  53  43 NE7       29.81F
BARNWELL       FAIR      77  55  47 E10       29.81S
AIKEN          CLOUDY    73  52  46 E3        29.85F
MANNING        FAIR     N/A N/A N/A MISG      29.82S
COLUMBIA       MOSUNNY   78  51  38 SE8       29.81F
SUMTER         MOSUNNY   76  53  43 NE8       29.80F
FLORENCE       CLOUDY    76  56  49 SE9       29.84S
MYRTLE BEACH   PTSUNNY   70  61  73 E12       29.87F
N MYRTLE BEACH CLOUDY    68  60  75 E7        29.85F

$$

GAZ063-065-086>088-099>101-113>116-118-119-134>141-150-232200-
...SOUTHEAST GEORGIA...

CITY           SKY/WX    TMP DP  RH WIND       PRES   REMARKS
SAVANNAH ARPT  PTSUNNY   74  58  57 E16       29.80S
HUNTER AAF     PTSUNNY   73  66  78 E17       29.77S
FORT STEWART   LGT RAIN  73  61  64 E15G21    29.77S
STATESBORO     PTSUNNY   75  61  60 E5        29.79F
SYLVANIA       MOCLDY   N/A N/A N/A E8        29.80F
CLAXTON        LGT RAIN N/A N/A N/A N6        29.79S

...CSRA...CENTRAL AND FAR SOUTHEAST GEORGIA...

CITY           SKY/WX    TMP DP  RH WIND       PRES   REMARKS
THOMSON        SUNNY     76  54  46 SE3       29.86S
AUGUSTA-BUSH   MOSUNNY   79  53  40 E6        29.80F
AUGUSTA-DANIEL MOSUNNY   77  50  38 E8        29.82F
SWAINSBORO     FAIR      73  55  53 CALM      29.80F
VIDALIA        PTSUNNY   79  63  57 E16       29.79S
EASTMAN        MOCLDY    79  40  25 E8        29.82S
HAZLEHURST     MOCLDY    76  62  61 E6        29.77F
ALMA           MOSUNNY   75  59  57 E9G17     29.76F
WAYCROSS       PTSUNNY   78  65  64 E12G17    29.76S
JESUP          LGT RAIN  72  63  73 E10G21    29.78R
BAXLEY         FAIR      79  63  57 E8        29.76S
BRUNSWICK      MOSUNNY   73  64  73 NE15      29.77S
SAINT SIMONS   MOSUNNY   72  61  68 NE17G28   29.76S

$$

SCZ027-028-034-036>038-045-046-048>050-GAZ119-141-232200-
...LAKE AND SUPPLEMENTAL COASTAL OBSERVATIONS...

STATION/POSITION TIME  TEMP    WIND        PRES    WAVE   SWELL
                       AIR SEA DIR/SP/G            HT/PER HT/PER/DIR
                 (UTC) (F)     (DEG/KT/KT) (MB)    (FT/S) (FT/S/D)
WINYAH BAY       1945   65      60/ 10     1011.0
LAKE MURRAY      2020   73      80/  5/  9 1009.5F
ACE BASIN NERRS  NOT AVBL
FORT PULASKI     2048   66 62   70/ 16/ 20 1009.3R
SAPELO ISLAND    2000   73      50/ 13     1008.0

$$

ANZ835-935-AMZ111-154-330-350-352-354-370-450-454-472-232200-
...C-MAN AND BUOY OBSERVATIONS...

STATION/POSITION TIME  TEMP    WIND        PRES    WAVE   SWELL
                       AIR SEA DIR/SP/G            HT/PER HT/PER/DIR
                 (UTC) (F)     (DEG/KT/KT) (MB)    (FT/S) (FT/S/D)
BUOY 41004       1950   71 70   80/ 16/ 19 1008.4    9/ 8   7/150/ 8
BUOY 41008       1950   64 63   40/ 17/ 19 1007.3    7/ 9   5/140/ 9
FOLLY BEACH CMAN 2000   65      40/ 15/ 17 1010.3F
CAPERS NEARSHORE 2008   63 60   50/ 14/ 17 1009.5F
FRIPP NEARSHORE  2008   63 61   60/ 14/ 17 1009.0F


STATION/POSITION TIME  TEMP    WIND        PRES    WAVE   SWELL
                       AIR SEA DIR/SP/G            HT/PER HT/PER/DIR
                 (UTC) (F)     (DEG/KT/KT) (MB)    (FT/S) (FT/S/D)
5E ST. MARYS GA  2030      64                N/A     8/ 9   2/100/11
FRYING PAN BUOY  2050   71 70   80/ 12/ 16 1010.3F   6/ 8   5/130/ 8
BUOY 41025       2050   70 73  150/ 12/ 14 1012.6R   4/ 5   3/150/ 6
CAPE LOOKOUT NC  2100   65     100/ 11/ 12 1011.7F
BUOY 41002       2050   69 70  100/ 21/ 27 1010.1S   9/ 8   3/ 60/11
BUOY 41010       NOT AVBL
ST AUGUSTINE FL  2100   66 67  360/ 21/ 23 1006.1R


$$



USA.gov is the U.S. government's official web portal to all federal, state and local government web resources and services.